timestamp,surface_pressure_avg,surface_temp_avg,battery_voltage,lat,long
2023-07-20 00:09:00+00:00,339.0446,19.0,12.81,47.84626,-54.09684
2023-07-20 00:19:00+00:00,343.2163,18.98,12.73,47.84626,-54.09684
2023-07-20 00:29:00+00:00,345.7813,18.93,12.73,47.84626,-54.09684
2023-07-20 00:39:00+00:00,346.1496,18.95,12.73,47.84626,-54.09684
2023-07-20 00:49:00+00:00,347.5797,18.98,12.73,47.84626,-54.09684
2023-07-20 00:59:00+00:00,349.1112,18.91,12.73,47.84626,-54.09684
2023-07-20 01:09:00+00:00,350.7096,18.9,12.73,47.84626,-54.09684
2023-07-20 01:19:00+00:00,352.7446,18.9,12.73,47.84626,-54.09684
2023-07-20 01:29:00+00:00,351.8313,18.9,12.73,47.84626,-54.09684
2023-07-20 01:39:00+00:00,349.6197,18.9,12.73,47.84626,-54.09684
2023-07-20 01:49:00+00:00,348.6396,18.91,12.73,47.84626,-54.09684
2023-07-20 01:59:00+00:00,348.5046,18.95,12.73,47.84626,-54.09684
2023-07-20 02:09:00+00:00,347.42800000000005,18.95,12.73,47.84626,-54.09684
2023-07-20 02:19:00+00:00,345.3997,18.9,12.73,47.84626,-54.09684
2023-07-20 02:29:00+00:00,341.5129,18.9,12.73,47.84626,-54.09684
2023-07-20 02:39:00+00:00,339.1429,18.9,12.73,47.84626,-54.09684
2023-07-20 02:49:00+00:00,337.6597,18.89,12.73,47.84626,-54.09684
2023-07-20 02:59:00+00:00,330.8697,18.9,12.73,47.84626,-54.09684
2023-07-20 03:09:00+00:00,325.033,18.99,12.73,47.84626,-54.09684
2023-07-20 03:19:00+00:00,320.5946,19.0,12.73,47.84626,-54.09684
2023-07-20 03:29:00+00:00,315.8229,19.0,12.73,47.84626,-54.09684
2023-07-20 03:39:00+00:00,308.213,19.08,12.73,47.84626,-54.09684
2023-07-20 03:49:00+00:00,302.6163,19.1,12.73,47.84626,-54.09684
2023-07-20 03:59:00+00:00,296.6396,19.1,12.73,47.84626,-54.09684
2023-07-20 04:09:00+00:00,287.0497,19.16,12.73,47.84626,-54.09684
2023-07-20 04:19:00+00:00,279.7463,19.2,12.73,47.84626,-54.09684
2023-07-20 04:29:00+00:00,275.8831,19.24,12.73,47.84626,-54.09684
2023-07-20 04:39:00+00:00,269.568,19.3,12.73,47.84626,-54.09684
2023-07-20 04:49:00+00:00,258.1147,19.3,12.73,47.84626,-54.09684
2023-07-20 04:59:00+00:00,250.0781,19.32,12.73,47.84626,-54.09684
2023-07-20 05:09:00+00:00,245.1181,19.34,12.73,47.84626,-54.09684
2023-07-20 05:19:00+00:00,238.2864,19.34,12.73,47.84626,-54.09684
2023-07-20 05:29:00+00:00,228.958,19.38,12.73,47.84626,-54.09684
2023-07-20 05:39:00+00:00,223.3914,19.4,12.73,47.84626,-54.09684
2023-07-20 05:49:00+00:00,217.4831,19.4,12.73,47.84626,-54.09684
2023-07-20 05:59:00+00:00,210.483,19.41,12.73,47.84626,-54.09684
2023-07-20 06:09:00+00:00,205.2931,19.47,12.73,47.84626,-54.09684
2023-07-20 06:19:00+00:00,202.7264,19.49,12.65,47.84626,-54.09684
2023-07-20 06:29:00+00:00,198.6531,19.5,12.65,47.84626,-54.09684
2023-07-20 06:39:00+00:00,195.1948,19.5,12.65,47.84626,-54.09684
2023-07-20 06:49:00+00:00,195.2381,19.5,12.65,47.84626,-54.09684
2023-07-20 06:59:00+00:00,194.8665,19.5,12.65,47.84626,-54.09684
2023-07-20 07:09:00+00:00,193.7065,19.53,12.65,47.84626,-54.09684
2023-07-20 07:19:00+00:00,195.3998,19.59,12.65,47.84626,-54.09684
2023-07-20 07:29:00+00:00,196.8514,19.6,12.65,47.84626,-54.09684
2023-07-20 07:39:00+00:00,198.6881,19.6,12.65,47.84626,-54.09684
2023-07-20 07:49:00+00:00,201.4448,19.65,12.65,47.84626,-54.09684
2023-07-20 07:59:00+00:00,202.8931,19.69,12.65,47.84626,-54.09684
2023-07-20 08:09:00+00:00,203.9948,19.7,12.65,47.84626,-54.09684
2023-07-20 08:19:00+00:00,205.5298,19.7,12.65,47.84626,-54.09684
2023-07-20 08:29:00+00:00,209.6131,19.7,12.65,47.84626,-54.09684
2023-07-20 08:39:00+00:00,215.3997,19.7,12.65,47.84626,-54.09684
2023-07-20 08:49:00+00:00,220.6331,19.7,12.65,47.84626,-54.09684
2023-07-20 08:59:00+00:00,223.8031,19.7,12.65,47.84626,-54.09684
2023-07-20 09:09:00+00:00,227.0447,19.69,12.65,47.84626,-54.09684
2023-07-20 09:19:00+00:00,232.5598,19.69,12.65,47.84626,-54.09684
2023-07-20 09:29:00+00:00,235.7981,19.69,12.65,47.84626,-54.09684
2023-07-20 09:39:00+00:00,237.0681,19.68,12.65,47.84626,-54.09684
2023-07-20 09:49:00+00:00,241.4547,19.69,12.65,47.84626,-54.09684
2023-07-20 09:59:00+00:00,245.5514,19.68,12.65,47.84626,-54.09684
2023-07-20 10:09:00+00:00,246.6131,19.65,12.65,47.84626,-54.09684
2023-07-20 10:19:00+00:00,250.2614,19.62,12.65,47.84626,-54.09684
2023-07-20 10:29:00+00:00,257.1647,19.6,12.65,47.84626,-54.09684
2023-07-20 10:39:00+00:00,262.0648,19.6,12.65,47.84626,-54.09684
2023-07-20 10:49:00+00:00,263.1614,19.6,12.65,47.84626,-54.09684
2023-07-20 10:59:00+00:00,267.8514,19.6,12.65,47.84626,-54.09684
2023-07-20 11:09:00+00:00,275.5814,19.6,12.65,47.84626,-54.09684
2023-07-20 11:19:00+00:00,281.3047,19.55,12.73,47.84626,-54.09684
2023-07-20 11:29:00+00:00,283.8347,19.56,12.73,47.84626,-54.09684
2023-07-20 11:39:00+00:00,290.168,19.57,12.73,47.84626,-54.09684
2023-07-20 11:49:00+00:00,299.283,19.58,12.73,47.84626,-54.09684
2023-07-20 11:59:00+00:00,304.4997,19.58,12.73,47.84626,-54.09684
2023-07-20 12:09:00+00:00,308.283,19.59,12.73,47.84626,-54.09684
2023-07-20 12:19:00+00:00,317.0114,19.59,12.89,47.84626,-54.09684
2023-07-20 12:29:00+00:00,322.6964,19.56,12.89,47.84626,-54.09684
2023-07-20 12:39:00+00:00,326.8797,19.5,12.89,47.84626,-54.09684
2023-07-20 12:49:00+00:00,326.6696,19.5,12.89,47.84626,-54.09684
2023-07-20 12:59:00+00:00,328.963,19.5,12.89,47.84626,-54.09684
2023-07-20 13:09:00+00:00,328.8696,19.4,12.89,47.84626,-54.09684
2023-07-20 13:19:00+00:00,328.4063,19.4,12.97,47.84626,-54.09684
2023-07-20 13:29:00+00:00,326.8679,19.4,12.97,47.84626,-54.09684
2023-07-20 13:39:00+00:00,327.273,19.4,12.97,47.84626,-54.09684
2023-07-20 13:49:00+00:00,326.6146,19.4,12.97,47.84626,-54.09684
2023-07-20 13:59:00+00:00,324.9596,19.4,12.97,47.84626,-54.09684
2023-07-20 14:09:00+00:00,320.793,19.4,12.97,47.84626,-54.09684
2023-07-20 14:19:00+00:00,316.3347,19.4,13.29,47.84626,-54.09684
2023-07-20 14:29:00+00:00,312.2563,19.4,13.29,47.84626,-54.09684
2023-07-20 14:39:00+00:00,311.4397,19.4,13.29,47.84626,-54.09684
2023-07-20 14:49:00+00:00,310.4864,19.37,13.29,47.84626,-54.09684
2023-07-20 14:59:00+00:00,307.318,19.3,13.29,47.84626,-54.09684
2023-07-20 15:09:00+00:00,302.8447,19.32,13.29,47.84626,-54.09684
2023-07-20 15:19:00+00:00,301.5663,19.3,13.29,47.84626,-54.09684
2023-07-20 15:29:00+00:00,298.7714,19.3,13.29,47.84626,-54.09684
2023-07-20 15:39:00+00:00,293.2364,19.38,13.29,47.84626,-54.09684
2023-07-20 15:49:00+00:00,288.0714,19.4,13.29,47.84626,-54.09684
2023-07-20 15:59:00+00:00,282.2313,19.4,13.29,47.84626,-54.09684
2023-07-20 16:09:00+00:00,274.7881,19.3,13.29,47.84626,-54.09684
2023-07-20 16:19:00+00:00,265.2615,19.37,13.37,47.84626,-54.09684
2023-07-20 16:29:00+00:00,259.1581,19.4,13.37,47.84626,-54.09684
2023-07-20 16:39:00+00:00,254.3464,19.4,13.37,47.84626,-54.09684
2023-07-20 16:49:00+00:00,249.1797,19.4,13.37,47.84626,-54.09684
2023-07-20 16:59:00+00:00,241.0997,19.46,13.37,47.84626,-54.09684
2023-07-20 17:09:00+00:00,234.7614,19.5,13.37,47.84626,-54.09684
2023-07-20 17:19:00+00:00,228.1431,19.52,13.6,47.84626,-54.09684
2023-07-20 17:29:00+00:00,220.6631,19.56,13.6,47.84626,-54.09684
2023-07-20 17:39:00+00:00,213.2031,19.56,13.6,47.84626,-54.09684
2023-07-20 17:49:00+00:00,208.5464,19.57,13.6,47.84626,-54.09684
2023-07-20 17:59:00+00:00,203.8648,19.57,13.6,47.84626,-54.09684
2023-07-20 18:09:00+00:00,198.9615,19.6,13.6,47.84626,-54.09684
2023-07-20 18:19:00+00:00,197.2265,19.6,13.6,47.84626,-54.09684
2023-07-20 18:29:00+00:00,196.6964,19.6,13.6,47.84626,-54.09684
2023-07-20 18:39:00+00:00,193.9548,19.6,13.6,47.84626,-54.09684
2023-07-20 18:49:00+00:00,192.5298,19.5,13.6,47.84626,-54.09684
2023-07-20 18:59:00+00:00,192.9732,19.5,13.6,47.84626,-54.09684
2023-07-20 19:09:00+00:00,190.4865,19.57,13.6,47.84626,-54.09684
2023-07-20 19:19:00+00:00,189.7248,19.59,13.6,47.84626,-54.09684
2023-07-20 19:29:00+00:00,192.8114,19.6,13.6,47.84626,-54.09684
2023-07-20 19:39:00+00:00,193.3981,19.6,13.6,47.84626,-54.09684
2023-07-20 19:49:00+00:00,192.1864,19.61,13.6,47.84626,-54.09684
2023-07-20 19:59:00+00:00,193.8831,19.65,13.6,47.84626,-54.09684
2023-07-20 20:09:00+00:00,199.6014,19.61,13.6,47.84626,-54.09684
2023-07-20 20:19:01+00:00,202.6498,19.6,13.29,47.84626,-54.09684
2023-07-20 20:29:01+00:00,206.4898,19.59,13.29,47.84626,-54.09684
2023-07-20 20:39:01+00:00,213.7081,19.56,13.29,47.84626,-54.09684
2023-07-20 20:49:01+00:00,220.1114,19.59,13.29,47.84626,-54.09684
2023-07-20 20:59:01+00:00,223.6814,19.6,13.29,47.84626,-54.09684
2023-07-20 21:09:01+00:00,229.3781,19.6,13.29,47.84626,-54.09684
2023-07-20 21:19:00+00:00,234.5664,19.6,13.05,47.84626,-54.09684
2023-07-20 21:29:00+00:00,237.6981,19.6,13.05,47.84626,-54.09684
2023-07-20 21:39:00+00:00,240.5215,19.6,13.05,47.84626,-54.09684
2023-07-20 21:49:00+00:00,244.4681,19.5,13.05,47.84626,-54.09684
2023-07-20 21:59:00+00:00,249.6681,19.5,13.05,47.84626,-54.09684
2023-07-20 22:09:00+00:00,254.6314,19.4,13.05,47.84626,-54.09684
2023-07-20 22:19:00+00:00,258.3564,19.43,12.89,47.84626,-54.09684
2023-07-20 22:29:00+00:00,263.7698,19.47,12.89,47.84626,-54.09684
2023-07-20 22:39:00+00:00,271.1664,19.5,12.89,47.84626,-54.09684
2023-07-20 22:49:00+00:00,276.6581,19.5,12.89,47.84626,-54.09684
2023-07-20 22:59:00+00:00,278.5081,19.51,12.89,47.84626,-54.09684
2023-07-20 23:09:00+00:00,283.033,19.57,12.89,47.84626,-54.09684
2023-07-20 23:19:00+00:00,292.0881,19.57,12.81,47.84626,-54.09684
2023-07-20 23:29:00+00:00,299.658,19.51,12.81,47.84626,-54.09684
2023-07-20 23:39:00+00:00,302.9697,19.54,12.81,47.84626,-54.09684
2023-07-20 23:49:00+00:00,308.0013,19.57,12.81,47.84626,-54.09684
2023-07-20 23:59:00+00:00,314.1247,19.57,12.81,47.84626,-54.09684
